Vanaf de start van Weerstation Assen op 01-04-2009 wordt iedere 5 minuten data gestuurd naar de Weather Underground. In het overzicht hieronder is dit terug te vinden op datum en per 5 minuten.
Station Historical Data
 
Dagelijks Overzicht voor Augustus 17, 2017 Eenheden:  Beide    Engels   Metrisch
« Vorige Dag
Volgende Dag »
Dagelijks Wekelijks Maandelijks Jaarlijks Custom
  Huidig: Hoog: Laag: Gemiddeld:
Temperatuur: 63.9 °F /  17.7 °C 67.1 °F /  19.5 °C 57 °F /  13.9 °C 61.7 °F /  16.5 °C
Dauwpunt: 61.7 °F /  16.5 °C 62.4 °F /  16.9 °C 53.4 °F /  11.9 °C 56.5 °F /  13.6 °C
Vochtigheid: 93 % 93 % 75 % 83 %
Windkracht: 11.5 mph /  18.5 km/h 12.7 mph /  20.4 km/h - 2.5 mph /  4 km/h
Wind vlaag: 11.5 mph /  18.5 km/h 12.7 mph /  20.4 km/h - -
Wind:SSW - - South
Luchtdruk: 29.9 in /  1013.4 hPa 30.1 in /  1020.2 hPa 29.9 in /  1013.1 hPa -
Neerslag: 0.09 in /  2.3 mm      
Historical Graphs
 
 
Tabel Data for Augustus 17, 2017
Tijd Temperatuur Dauwpunt Luchtdruk Wind Windkracht Windvlaag Vochtigheid Regenval snelheid (Per uur) Zon Condities
00:00 64.2 °F /  17.9 °C 56.5 °F /  13.6 °C 30.1 in /  1020.2 hPa Calm     76 % 0 in /  0.0 mm 0.0 W/m2 OVC
00:04 62.4 °F /  16.9 °C 55.6 °F /  13.1 °C 30.1 in /  1019.2 hPa ESE 1.2 mph /  1.9 km/h 1.2 mph /  1.9 km/h 78 % 0 in /  0.0 mm 0.0 W/m2 CLR
00:05 64 °F /  17.8 °C 56.3 °F /  13.5 °C 30.1 in /  1020.2 hPa Calm   2 mph /  3.2 km/h 76 % 0 in /  0.0 mm 0.0 W/m2 OVC
00:09 62.4 °F /  16.9 °C 55.4 °F /  13.0 °C 30.1 in /  1019.2 hPa SE 3.5 mph /  5.6 km/h 3.5 mph /  5.6 km/h 78 % 0 in /  0.0 mm 0.0 W/m2 CLR
00:10 63.9 °F /  17.7 °C 56.5 °F /  13.6 °C 30.1 in /  1020.2 hPa SE 1 mph /  1.6 km/h 3 mph /  4.8 km/h 77 % 0 in /  0.0 mm 0.0 W/m2 OVC
00:14 62.4 °F /  16.9 °C 55.4 °F /  13.0 °C 30.1 in /  1019.2 hPa Calm   6 mph /  9.7 km/h 78 % 0 in /  0.0 mm 0.0 W/m2 CLR
00:15 63.9 °F /  17.7 °C 56.1 °F /  13.4 °C 30.1 in /  1020.2 hPa Calm   2 mph /  3.2 km/h 76 % 0 in /  0.0 mm 0.0 W/m2 OVC
00:19 62.8 °F /  17.1 °C 55.8 °F /  13.2 °C 30.1 in /  1018.8 hPa SE 3.5 mph /  5.6 km/h 3.5 mph /  5.6 km/h 78 % 0 in /  0.0 mm 0.0 W/m2 CLR
00:20 63.7 °F /  17.6 °C 56.5 °F /  13.6 °C 30.1 in /  1019.9 hPa Calm   2 mph /  3.2 km/h 77 % 0 in /  0.0 mm 0.0 W/m2 OVC
00:24 62.8 °F /  17.1 °C 55.4 °F /  13.0 °C 30.1 in /  1018.8 hPa SE 3.5 mph /  5.6 km/h 3.5 mph /  5.6 km/h 77 % 0 in /  0.0 mm 0.0 W/m2 CLR
00:25 63.7 °F /  17.6 °C 56.3 °F /  13.5 °C 30.1 in /  1019.9 hPa ESE 3 mph /  4.8 km/h 3 mph /  4.8 km/h 77 % 0 in /  0.0 mm 0.0 W/m2 OVC
00:29 63 °F /  17.2 °C 55.2 °F /  12.9 °C 30.1 in /  1018.8 hPa SE 3.5 mph /  5.6 km/h 3.5 mph /  5.6 km/h 76 % 0 in /  0.0 mm 0.0 W/m2 CLR
00:30 63.5 °F /  17.5 °C 56.1 °F /  13.4 °C 30.1 in /  1019.9 hPa ESE 2 mph /  3.2 km/h 4 mph /  6.4 km/h 77 % 0 in /  0.0 mm 0.0 W/m2 OVC
00:34 63.1 °F /  17.3 °C 55.6 °F /  13.1 °C 30.1 in /  1018.8 hPa SE 2 mph /  3.2 km/h 7 mph /  11.3 km/h 76 % 0 in /  0.0 mm 0.0 W/m2 CLR
00:35 63.3 °F /  17.4 °C 56.1 °F /  13.4 °C 30.1 in /  1019.9 hPa ESE 1 mph /  1.6 km/h 3 mph /  4.8 km/h 77 % 0 in /  0.0 mm 0.0 W/m2 OVC
00:39 63.3 °F /  17.4 °C 55.8 °F /  13.2 °C 30.1 in /  1018.8 hPa SSE 4.6 mph /  7.4 km/h 4.6 mph /  7.4 km/h 76 % 0 in /  0.0 mm 0.0 W/m2 CLR
00:40 63.1 °F /  17.3 °C 55.9 °F /  13.3 °C 30.1 in /  1019.9 hPa Calm   3 mph /  4.8 km/h 77 % 0 in /  0.0 mm 0.0 W/m2 OVC
00:44 63.3 °F /  17.4 °C 55.8 °F /  13.2 °C 30.1 in /  1018.5 hPa SE 3.5 mph /  5.6 km/h 3.5 mph /  5.6 km/h 76 % 0 in /  0.0 mm 0.0 W/m2 CLR
00:45 63 °F /  17.2 °C 55.8 °F /  13.2 °C 30.1 in /  1019.9 hPa ESE 1 mph /  1.6 km/h 3 mph /  4.8 km/h 77 % 0 in /  0.0 mm 0.0 W/m2 OVC
00:49 63.3 °F /  17.4 °C 55.6 °F /  13.1 °C 30.1 in /  1018.5 hPa SE 3.5 mph /  5.6 km/h 3.5 mph /  5.6 km/h 76 % 0 in /  0.0 mm 0.0 W/m2 CLR
00:50 63 °F /  17.2 °C 55.8 °F /  13.2 °C 30.1 in /  1019.9 hPa ESE 1 mph /  1.6 km/h 3 mph /  4.8 km/h 77 % 0 in /  0.0 mm 0.0 W/m2 OVC
00:54 63 °F /  17.2 °C 55.2 °F /  12.9 °C 30.1 in /  1018.5 hPa SSE 4 mph /  6.4 km/h 4 mph /  6.4 km/h 76 % 0 in /  0.0 mm 0.0 W/m2 CLR
00:55 63 °F /  17.2 °C 55.8 °F /  13.2 °C 30.1 in /  1019.5 hPa ESE 2 mph /  3.2 km/h 4 mph /  6.4 km/h 77 % 0 in /  0.0 mm 0.0 W/m2 OVC
00:59 62.8 °F /  17.1 °C 55 °F /  12.8 °C 30.1 in /  1018.5 hPa Calm   0.8 mph /  1.3 km/h 76 % 0 in /  0.0 mm 0.0 W/m2 CLR
01:00 63 °F /  17.2 °C 55.6 °F /  13.1 °C 30.1 in /  1019.5 hPa SE 2 mph /  3.2 km/h 4 mph /  6.4 km/h 77 % 0 in /  0.0 mm 0.0 W/m2 OVC
01:04 62.6 °F /  17.0 °C 55.2 °F /  12.9 °C 30.1 in /  1018.5 hPa Calm     77 % 0 in /  0.0 mm 0.0 W/m2 CLR
01:05 62.8 °F /  17.1 °C 55.6 °F /  13.1 °C 30.1 in /  1019.5 hPa ESE 1 mph /  1.6 km/h 5 mph /  8.0 km/h 77 % 0 in /  0.0 mm 0.0 W/m2 OVC
01:09 62.2 °F /  16.8 °C 55.4 °F /  13.0 °C 30.1 in /  1018.8 hPa Calm     78 % 0 in /  0.0 mm 0.0 W/m2 CLR
01:10 62.8 °F /  17.1 °C 55.8 °F /  13.2 °C 30.1 in /  1019.5 hPa ESE 1 mph /  1.6 km/h 6 mph /  9.7 km/h 78 % 0 in /  0.0 mm 0.0 W/m2 OVC
01:14 62.2 °F /  16.8 °C 55.2 °F /  12.9 °C 30.1 in /  1018.8 hPa SSE 4.6 mph /  7.4 km/h 4.6 mph /  7.4 km/h 78 % 0 in /  0.0 mm 0.0 W/m2 CLR
01:15 62.4 °F /  16.9 °C 55.6 °F /  13.1 °C 30.1 in /  1019.5 hPa Calm   4 mph /  6.4 km/h 78 % 0 in /  0.0 mm 0.0 W/m2 OVC
01:19 62.2 °F /  16.8 °C 55.4 °F /  13.0 °C 30.1 in /  1018.8 hPa SSE 6.9 mph /  11.1 km/h 6.9 mph /  11.1 km/h 78 % 0 in /  0.0 mm 0.0 W/m2 CLR
01:20 62.4 °F /  16.9 °C 55.4 °F /  13.0 °C 30.1 in /  1019.5 hPa Calm   2 mph /  3.2 km/h 78 % 0 in /  0.0 mm 0.0 W/m2 OVC
01:24 62.2 °F /  16.8 °C 55.2 °F /  12.9 °C 30.1 in /  1018.8 hPa South 1 mph /  1.6 km/h 6 mph /  9.7 km/h 78 % 0 in /  0.0 mm 0.0 W/m2 CLR
01:25 62.2 °F /  16.8 °C 55.2 °F /  12.9 °C 30.1 in /  1019.5 hPa Calm     78 % 0 in /  0.0 mm 0.0 W/m2 OVC
01:29 62.2 °F /  16.8 °C 55.2 °F /  12.9 °C 30.1 in /  1018.8 hPa SSW 3.5 mph /  5.6 km/h 3.5 mph /  5.6 km/h 78 % 0 in /  0.0 mm 0.0 W/m2 CLR
01:30 62.2 °F /  16.8 °C 55.2 °F /  12.9 °C 30.1 in /  1019.5 hPa Calm   3 mph /  4.8 km/h 78 % 0 in /  0.0 mm 0.0 W/m2 OVC
01:34 62.1 °F /  16.7 °C 55 °F /  12.8 °C 30.1 in /  1018.8 hPa SSE 3.5 mph /  5.6 km/h 3.5 mph /  5.6 km/h 78 % 0 in /  0.0 mm 0.0 W/m2 CLR
01:35 62.2 °F /  16.8 °C 55.4 °F /  13.0 °C 30.1 in /  1019.5 hPa Calm   4 mph /  6.4 km/h 78 % 0 in /  0.0 mm 0.0 W/m2 OVC
01:39 61.9 °F /  16.6 °C 54.9 °F /  12.7 °C 30.1 in /  1018.5 hPa Calm     78 % 0 in /  0.0 mm 0.0 W/m2 CLR
01:40 62.4 °F /  16.9 °C 55.4 °F /  13.0 °C 30.1 in /  1019.5 hPa Calm   2 mph /  3.2 km/h 78 % 0 in /  0.0 mm 0.0 W/m2 OVC
01:44 61.7 °F /  16.5 °C 55 °F /  12.8 °C 30.1 in /  1018.5 hPa Calm   4 mph /  6.4 km/h 79 % 0 in /  0.0 mm 0.0 W/m2 CLR
01:45 62.4 °F /  16.9 °C 55.4 °F /  13.0 °C 30.1 in /  1019.2 hPa SE 1 mph /  1.6 km/h 3 mph /  4.8 km/h 78 % 0 in /  0.0 mm 0.0 W/m2 OVC
01:49 61.3 °F /  16.3 °C 54.9 °F /  12.7 °C 30.1 in /  1018.5 hPa SE 2.3 mph /  3.7 km/h 2.3 mph /  3.7 km/h 79 % 0 in /  0.0 mm 0.0 W/m2 CLR
01:50 62.4 °F /  16.9 °C 55.4 °F /  13.0 °C 30.1 in /  1019.2 hPa Calm   4 mph /  6.4 km/h 78 % 0 in /  0.0 mm 0.0 W/m2 OVC
01:54 61.3 °F /  16.3 °C 55 °F /  12.8 °C 30.1 in /  1018.5 hPa Calm   1 mph /  1.6 km/h 80 % 0 in /  0.0 mm 0.0 W/m2 CLR
01:55 62.4 °F /  16.9 °C 55.6 °F /  13.1 °C 30.1 in /  1019.2 hPa Calm   3 mph /  4.8 km/h 78 % 0 in /  0.0 mm 0.0 W/m2 OVC
01:59 61.2 °F /  16.2 °C 54.9 °F /  12.7 °C 30.1 in /  1018.5 hPa SSE 3.5 mph /  5.6 km/h 3.5 mph /  5.6 km/h 80 % 0 in /  0.0 mm 0.0 W/m2 CLR
02:00 62.4 °F /  16.9 °C 55.6 °F /  13.1 °C 30.1 in /  1019.2 hPa Calm     78 % 0 in /  0.0 mm 0.0 W/m2 OVC
02:04 61.2 °F /  16.2 °C 54.9 °F /  12.7 °C 30.1 in /  1018.2 hPa Calm   4 mph /  6.4 km/h 80 % 0 in /  0.0 mm 0.0 W/m2 CLR
02:05 62.4 °F /  16.9 °C 55.4 °F /  13.0 °C 30.1 in /  1019.2 hPa ESE 1 mph /  1.6 km/h 4 mph /  6.4 km/h 78 % 0 in /  0.0 mm 0.0 W/m2 OVC
02:09 61.2 °F /  16.2 °C 54.9 °F /  12.7 °C 30.1 in /  1018.2 hPa SSE 4 mph /  6.4 km/h 4 mph /  6.4 km/h 80 % 0 in /  0.0 mm 0.0 W/m2 CLR
02:10 62.4 °F /  16.9 °C 55.4 °F /  13.0 °C 30.1 in /  1018.8 hPa ESE 1 mph /  1.6 km/h 4 mph /  6.4 km/h 78 % 0 in /  0.0 mm 0.0 W/m2 OVC
02:14 61.2 °F /  16.2 °C 54.9 °F /  12.7 °C 30.1 in /  1018.2 hPa Calm   3 mph /  4.8 km/h 80 % 0 in /  0.0 mm 0.0 W/m2 CLR
02:15 62.4 °F /  16.9 °C 55.6 °F /  13.1 °C 30.1 in /  1019.2 hPa ESE 1 mph /  1.6 km/h 6 mph /  9.7 km/h 78 % 0 in /  0.0 mm 0.0 W/m2 OVC
02:19 61.2 °F /  16.2 °C 55 °F /  12.8 °C 30.1 in /  1018.2 hPa South 1.2 mph /  1.9 km/h   80 % 0 in /  0.0 mm 0.0 W/m2 CLR
02:20 62.6 °F /  17.0 °C 55.2 °F /  12.9 °C 30.1 in /  1018.8 hPa Calm   4 mph /  6.4 km/h 77 % 0 in /  0.0 mm 0.0 W/m2 OVC
02:24 61.3 °F /  16.3 °C 55 °F /  12.8 °C 30.1 in /  1018.2 hPa SE 3.5 mph /  5.6 km/h 3.5 mph /  5.6 km/h 80 % 0 in /  0.0 mm 0.0 W/m2 CLR
02:25 62.8 °F /  17.1 °C 55.6 °F /  13.1 °C 30.1 in /  1018.8 hPa SE 3 mph /  4.8 km/h 5 mph /  8.0 km/h 77 % 0 in /  0.0 mm 0.0 W/m2 OVC
02:29 61.3 °F /  16.3 °C 54.9 °F /  12.7 °C 30.1 in /  1017.8 hPa South 3.5 mph /  5.6 km/h 3.5 mph /  5.6 km/h 79 % 0 in /  0.0 mm 0.0 W/m2 CLR
02:30 63.1 °F /  17.3 °C 55.4 °F /  13.0 °C 30.1 in /  1018.8 hPa Calm   7 mph /  11.3 km/h 76 % 0 in /  0.0 mm 0.0 W/m2 OVC
02:34 61.5 °F /  16.4 °C 54.9 °F /  12.7 °C 30.1 in /  1017.8 hPa SSE 1 mph /  1.6 km/h 6 mph /  9.7 km/h 79 % 0 in /  0.0 mm 0.0 W/m2 CLR
02:35 63.3 °F /  17.4 °C 55.6 °F /  13.1 °C 30.1 in /  1018.8 hPa SE 1 mph /  1.6 km/h 7 mph /  11.3 km/h 76 % 0 in /  0.0 mm 0.0 W/m2 OVC
02:39 61.5 °F /  16.4 °C 55 °F /  12.8 °C 30.1 in /  1017.8 hPa SE 4.6 mph /  7.4 km/h 4.6 mph /  7.4 km/h 79 % 0 in /  0.0 mm 0.0 W/m2 CLR
02:40 63.3 °F /  17.4 °C 55.8 °F /  13.2 °C 30.1 in /  1018.8 hPa Calm   8 mph /  12.9 km/h 76 % 0 in /  0.0 mm 0.0 W/m2 OVC
02:44 61.7 °F /  16.5 °C 55.8 °F /  13.2 °C 30.1 in /  1017.8 hPa Calm     81 % 0 in /  0.0 mm 0.0 W/m2 CLR
02:45 63.3 °F /  17.4 °C 55.2 °F /  12.9 °C 30.1 in /  1018.5 hPa Calm   5 mph /  8.0 km/h 75 % 0 in /  0.0 mm 0.0 W/m2 OVC
02:49 61.5 °F /  16.4 °C 55 °F /  12.8 °C 30.1 in /  1017.8 hPa Calm     79 % 0 in /  0.0 mm 0.0 W/m2 CLR
02:50 63.1 °F /  17.3 °C 55.6 °F /  13.1 °C 30.1 in /  1018.5 hPa Calm   4 mph /  6.4 km/h 76 % 0 in /  0.0 mm 0.0 W/m2 OVC
02:54 61.5 °F /  16.4 °C 55 °F /  12.8 °C 30.1 in /  1017.8 hPa Calm   1 mph /  1.6 km/h 79 % 0 in /  0.0 mm 0.0 W/m2 CLR
02:55 61.5 °F /  16.4 °C 55 °F /  12.8 °C 30.1 in /  1017.8 hPa Calm     79 % 0 in /  0.0 mm 0.0 W/m2 CLR
03:00 61.5 °F /  16.4 °C 54.9 °F /  12.7 °C 30.1 in /  1017.8 hPa South 3.5 mph /  5.6 km/h 3.5 mph /  5.6 km/h 79 % 0 in /  0.0 mm 0.0 W/m2 CLR
03:05 61.5 °F /  16.4 °C 54.9 °F /  12.7 °C 30.1 in /  1017.8 hPa Calm     79 % 0 in /  0.0 mm 0.0 W/m2 BKN
03:10 61.3 °F /  16.3 °C 55 °F /  12.8 °C 30.1 in /  1017.8 hPa Calm     80 % 0 in /  0.0 mm 0.0 W/m2 BKN
03:15 61.2 °F /  16.2 °C 54.9 °F /  12.7 °C 30.1 in /  1017.8 hPa Calm     80 % 0 in /  0.0 mm 0.0 W/m2 BKN
03:20 61 °F /  16.1 °C 54.7 °F /  12.6 °C 30.1 in /  1017.8 hPa Calm     80 % 0 in /  0.0 mm 0.0 W/m2 BKN
03:25 60.8 °F /  16.0 °C 54.9 °F /  12.7 °C 30.1 in /  1017.5 hPa Calm     81 % 0 in /  0.0 mm 0.0 W/m2 BKN
03:30 60.4 °F /  15.8 °C 54.7 °F /  12.6 °C 30.1 in /  1017.5 hPa Calm     81 % 0 in /  0.0 mm 0.0 W/m2 BKN
03:35 60.3 °F /  15.7 °C 54.9 °F /  12.7 °C 30.1 in /  1017.8 hPa Calm     82 % 0 in /  0.0 mm 0.0 W/m2 BKN
03:40 60.3 °F /  15.7 °C 54.7 °F /  12.6 °C 30.1 in /  1017.5 hPa Calm     82 % 0 in /  0.0 mm 0.0 W/m2 BKN
03:45 60.1 °F /  15.6 °C 54.7 °F /  12.6 °C 30.1 in /  1017.5 hPa Calm     82 % 0 in /  0.0 mm 0.0 W/m2 BKN
03:50 60.1 °F /  15.6 °C 54.5 °F /  12.5 °C 30.1 in /  1017.5 hPa Calm     82 % 0 in /  0.0 mm 0.0 W/m2 BKN
03:55 59.5 °F /  15.3 °C 54.3 °F /  12.4 °C 30.1 in /  1017.5 hPa Calm     83 % 0 in /  0.0 mm 0.0 W/m2 BKN
04:00 59.4 °F /  15.2 °C 54.1 °F /  12.3 °C 30.1 in /  1017.5 hPa Calm     83 % 0 in /  0.0 mm 0.0 W/m2 BKN
04:05 58.8 °F /  14.9 °C 54.1 °F /  12.3 °C 30.1 in /  1017.5 hPa Calm     84 % 0 in /  0.0 mm 0.0 W/m2 CLR
04:10 58.6 °F /  14.8 °C 54.1 °F /  12.3 °C 30.1 in /  1017.5 hPa Calm     85 % 0 in /  0.0 mm 0.0 W/m2 CLR
04:15 58.3 °F /  14.6 °C 53.8 °F /  12.1 °C 30 in /  1017.2 hPa Calm     85 % 0 in /  0.0 mm 0.0 W/m2 CLR
04:20 57.9 °F /  14.4 °C 53.8 °F /  12.1 °C 30 in /  1017.2 hPa Calm     86 % 0 in /  0.0 mm 0.0 W/m2 CLR
04:21 57.9 °F /  14.4 °C 53.8 °F /  12.1 °C 30 in /  1017.2 hPa Calm     86 % 0 in /  0.0 mm 0.0 W/m2 CLR
04:25 61.3 °F /  16.3 °C 55 °F /  12.8 °C 30.1 in /  1018.2 hPa Calm   3 mph /  4.8 km/h 80 % 0 in /  0.0 mm 0.0 W/m2 OVC
04:26 57.7 °F /  14.3 °C 53.4 °F /  11.9 °C 30 in /  1017.2 hPa Calm     86 % 0 in /  0.0 mm 0.0 W/m2 CLR
04:30 61.5 °F /  16.4 °C 54.9 °F /  12.7 °C 30.1 in /  1017.8 hPa Calm   4 mph /  6.4 km/h 79 % 0 in /  0.0 mm 0.0 W/m2 OVC
04:31 57.6 °F /  14.2 °C 53.8 °F /  12.1 °C 30 in /  1017.2 hPa Calm     87 % 0 in /  0.0 mm 0.0 W/m2 CLR
04:35 61.5 °F /  16.4 °C 55 °F /  12.8 °C 30.1 in /  1017.8 hPa SSE 1 mph /  1.6 km/h 6 mph /  9.7 km/h 79 % 0 in /  0.0 mm 0.0 W/m2 OVC
04:36 57.4 °F /  14.1 °C 53.4 °F /  11.9 °C 30 in /  1017.2 hPa Calm     87 % 0 in /  0.0 mm 0.0 W/m2 CLR
04:40 61.7 °F /  16.5 °C 55 °F /  12.8 °C 30.1 in /  1017.8 hPa Calm   5 mph /  8.0 km/h 79 % 0 in /  0.0 mm 0.0 W/m2 OVC
04:41 57.6 °F /  14.2 °C 53.8 °F /  12.1 °C 30 in /  1017.2 hPa Calm     87 % 0 in /  0.0 mm 0.0 W/m2 CLR
04:45 61.5 °F /  16.4 °C 55 °F /  12.8 °C 30.1 in /  1017.8 hPa Calm     79 % 0 in /  0.0 mm 0.0 W/m2 OVC
04:46 57.6 °F /  14.2 °C 54 °F /  12.2 °C 30 in /  1016.8 hPa Calm     88 % 0 in /  0.0 mm 0.0 W/m2 CLR
04:50 61.5 °F /  16.4 °C 55 °F /  12.8 °C 30.1 in /  1017.8 hPa Calm     79 % 0 in /  0.0 mm 0.0 W/m2 OVC
04:51 57.6 °F /  14.2 °C 54.1 °F /  12.3 °C 30 in /  1016.8 hPa Calm     88 % 0 in /  0.0 mm 0.0 W/m2 CLR
04:55 61.5 °F /  16.4 °C 54.9 °F /  12.7 °C 30.1 in /  1017.8 hPa Calm   1 mph /  1.6 km/h 79 % 0 in /  0.0 mm 0.0 W/m2 OVC
04:57 57.7 °F /  14.3 °C 54.1 °F /  12.3 °C 30 in /  1016.8 hPa Calm     88 % 0 in /  0.0 mm 0.0 W/m2 CLR
05:00 61.5 °F /  16.4 °C 55 °F /  12.8 °C 30.1 in /  1017.8 hPa Calm   3 mph /  4.8 km/h 79 % 0 in /  0.0 mm 0.0 W/m2 OVC
05:02 57.6 °F /  14.2 °C 54.1 °F /  12.3 °C 30 in /  1016.8 hPa Calm     88 % 0 in /  0.0 mm 0.0 W/m2 CLR
05:05 61.3 °F /  16.3 °C 55.2 °F /  12.9 °C 30.1 in /  1017.8 hPa Calm     80 % 0 in /  0.0 mm 0.0 W/m2 OVC
05:07 57.6 °F /  14.2 °C 54.1 °F /  12.3 °C 30 in /  1016.8 hPa ESE 1 mph /  1.6 km/h 1 mph /  1.6 km/h 88 % 0 in /  0.0 mm 0.0 W/m2 CLR
05:10 61.3 °F /  16.3 °C 55 °F /  12.8 °C 30.1 in /  1017.8 hPa Calm     80 % 0 in /  0.0 mm 0.0 W/m2 OVC
05:12 57.6 °F /  14.2 °C 53.8 °F /  12.1 °C 30 in /  1016.5 hPa Calm     87 % 0 in /  0.0 mm 0.0 W/m2 CLR
05:15 61.2 °F /  16.2 °C 54.9 °F /  12.7 °C 30.1 in /  1017.8 hPa Calm     80 % 0 in /  0.0 mm 0.0 W/m2 OVC
05:17 57.6 °F /  14.2 °C 53.8 °F /  12.1 °C 30 in /  1016.5 hPa Calm     87 % 0 in /  0.0 mm 0.0 W/m2 CLR
05:20 61 °F /  16.1 °C 54.7 °F /  12.6 °C 30.1 in /  1017.8 hPa Calm     80 % 0 in /  0.0 mm 0.0 W/m2 OVC
05:21 57.4 °F /  14.1 °C 54 °F /  12.2 °C 30 in /  1016.5 hPa Calm     88 % 0 in /  0.0 mm 0.0 W/m2 CLR
05:23 57.4 °F /  14.1 °C 53.8 °F /  12.1 °C 30 in /  1016.5 hPa Calm     88 % 0 in /  0.0 mm 0.0 W/m2 CLR
05:25 60.8 °F /  16.0 °C 54.9 °F /  12.7 °C 30.1 in /  1017.5 hPa Calm     81 % 0 in /  0.0 mm 0.0 W/m2 OVC
05:26 57.4 °F /  14.1 °C 53.8 °F /  12.1 °C 30 in /  1016.5 hPa Calm     88 % 0 in /  0.0 mm 0.0 W/m2 CLR
05:30 60.4 °F /  15.8 °C 54.7 °F /  12.6 °C 30.1 in /  1017.8 hPa Calm     81 % 0 in /  0.0 mm 0.0 W/m2 OVC
05:31 57.4 °F /  14.1 °C 54 °F /  12.2 °C 30 in /  1016.5 hPa Calm     88 % 0 in /  0.0 mm 0.0 W/m2 CLR
05:32 57.4 °F /  14.1 °C 54 °F /  12.2 °C 30 in /  1016.5 hPa Calm     88 % 0 in /  0.0 mm 0.0 W/m2 CLR
05:35 60.3 °F /  15.7 °C 54.9 °F /  12.7 °C 30.1 in /  1017.5 hPa Calm     82 % 0 in /  0.0 mm 0.0 W/m2 OVC
05:37 57.4 °F /  14.1 °C 53.8 °F /  12.1 °C 30 in /  1016.5 hPa Calm     88 % 0 in /  0.0 mm 0.0 W/m2 CLR
05:40 60.3 °F /  15.7 °C 54.7 °F /  12.6 °C 30.1 in /  1017.5 hPa Calm     82 % 0 in /  0.0 mm 0.0 W/m2 OVC
05:42 57.4 °F /  14.1 °C 53.8 °F /  12.1 °C 30 in /  1016.1 hPa Calm     88 % 0 in /  0.0 mm 0.0 W/m2 CLR
05:45 60.1 °F /  15.6 °C 54.7 °F /  12.6 °C 30.1 in /  1017.5 hPa Calm     82 % 0 in /  0.0 mm 0.0 W/m2 OVC
05:47 57.4 °F /  14.1 °C 53.8 °F /  12.1 °C 30 in /  1016.1 hPa Calm     88 % 0 in /  0.0 mm 0.0 W/m2 CLR
05:50 59.9 °F /  15.5 °C 54.3 °F /  12.4 °C 30.1 in /  1017.5 hPa Calm     82 % 0 in /  0.0 mm 0.0 W/m2 OVC
05:52 57.4 °F /  14.1 °C 53.8 °F /  12.1 °C 30 in /  1016.1 hPa Calm     88 % 0 in /  0.0 mm 0.0 W/m2 CLR
05:55 59.7 °F /  15.4 °C 54.5 °F /  12.5 °C 30.1 in /  1017.5 hPa Calm     83 % 0 in /  0.0 mm 0.0 W/m2 OVC
05:57 57.4 °F /  14.1 °C 53.8 °F /  12.1 °C 30 in /  1016.1 hPa Calm     88 % 0 in /  0.0 mm 0.0 W/m2 CLR
06:00 59.4 °F /  15.2 °C 54.1 °F /  12.3 °C 30.1 in /  1017.5 hPa Calm     83 % 0 in /  0.0 mm 0.0 W/m2 OVC
06:02 57.2 °F /  14.0 °C 53.8 °F /  12.1 °C 30 in /  1016.1 hPa Calm     88 % 0 in /  0.0 mm 0.0 W/m2 CLR
06:05 58.8 °F /  14.9 °C 54.1 °F /  12.3 °C 30.1 in /  1017.5 hPa Calm     84 % 0 in /  0.0 mm 0.0 W/m2 OVC
06:07 57.2 °F /  14.0 °C 53.8 °F /  12.1 °C 30 in /  1016.1 hPa Calm     88 % 0 in /  0.0 mm 0.0 W/m2 CLR
06:10 58.6 °F /  14.8 °C 54.1 °F /  12.3 °C 30 in /  1017.2 hPa Calm     85 % 0 in /  0.0 mm 0.0 W/m2 OVC
06:12 57.2 °F /  14.0 °C 53.8 °F /  12.1 °C 30 in /  1016.1 hPa Calm     88 % 0 in /  0.0 mm 5.0 W/m2 CLR
06:15 58.3 °F /  14.6 °C 53.8 °F /  12.1 °C 30 in /  1017.2 hPa Calm     85 % 0 in /  0.0 mm 0.0 W/m2 OVC
06:17 57 °F /  13.9 °C 53.6 °F /  12.0 °C 30 in /  1016.1 hPa Calm     88 % 0 in /  0.0 mm 5.0 W/m2 OVC
06:20 57.9 °F /  14.4 °C 53.8 °F /  12.1 °C 30 in /  1017.2 hPa Calm     86 % 0 in /  0.0 mm 0.0 W/m2 OVC
06:22 57 °F /  13.9 °C 53.4 °F /  11.9 °C 30 in /  1016.1 hPa Calm     88 % 0 in /  0.0 mm 5.0 W/m2 OVC
06:25 57.7 °F /  14.3 °C 53.4 °F /  11.9 °C 30 in /  1017.2 hPa Calm     86 % 0 in /  0.0 mm 0.0 W/m2 OVC
06:27 57 °F /  13.9 °C 53.8 °F /  12.1 °C 30 in /  1015.8 hPa Calm     89 % 0 in /  0.0 mm 9.0 W/m2 CLR
06:30 57.6 °F /  14.2 °C 53.8 °F /  12.1 °C 30 in /  1017.2 hPa Calm     87 % 0 in /  0.0 mm 0.0 W/m2 OVC
06:32 57 °F /  13.9 °C 53.8 °F /  12.1 °C 30 in /  1015.8 hPa Calm     89 % 0 in /  0.0 mm 12.0 W/m2 FEW
06:35 57.4 °F /  14.1 °C 53.4 °F /  11.9 °C 30 in /  1017.2 hPa Calm     87 % 0 in /  0.0 mm 0.0 W/m2 OVC
06:37 57 °F /  13.9 °C 54 °F /  12.2 °C 30 in /  1015.8 hPa Calm     89 % 0 in /  0.0 mm 14.0 W/m2 FEW
06:40 57.6 °F /  14.2 °C 53.8 °F /  12.1 °C 30 in /  1017.2 hPa Calm     87 % 0 in /  0.0 mm 0.0 W/m2 OVC
06:43 57.4 °F /  14.1 °C 54.1 °F /  12.3 °C 30 in /  1015.8 hPa Calm     89 % 0 in /  0.0 mm 14.0 W/m2 SCT
06:45 57.6 °F /  14.2 °C 53.8 °F /  12.1 °C 30 in /  1017.2 hPa Calm     87 % 0 in /  0.0 mm 0.0 W/m2 OVC
06:47 57.4 °F /  14.1 °C 54.1 °F /  12.3 °C 30 in /  1015.8 hPa Calm     89 % 0 in /  0.0 mm 16.0 W/m2 SCT
06:50 57.6 °F /  14.2 °C 54.1 °F /  12.3 °C 30 in /  1016.8 hPa Calm     88 % 0 in /  0.0 mm 0.0 W/m2 OVC
06:52 57.6 °F /  14.2 °C 54 °F /  12.2 °C 30 in /  1015.8 hPa Calm     88 % 0 in /  0.0 mm 19.0 W/m2 BKN
06:55 57.7 °F /  14.3 °C 54.1 °F /  12.3 °C 30 in /  1016.8 hPa Calm     88 % 0 in /  0.0 mm 0.0 W/m2 OVC
06:57 57.6 °F /  14.2 °C 54.1 °F /  12.3 °C 30 in /  1015.5 hPa Calm     88 % 0 in /  0.0 mm 25.0 W/m2 SCT
07:00 57.6 °F /  14.2 °C 54.1 °F /  12.3 °C 30 in /  1016.8 hPa Calm     88 % 0 in /  0.0 mm 0.0 W/m2 OVC
07:02 57.6 °F /  14.2 °C 54.1 °F /  12.3 °C 30 in /  1015.5 hPa Calm     88 % 0 in /  0.0 mm 30.0 W/m2 SCT
07:05 57.6 °F /  14.2 °C 54.1 °F /  12.3 °C 30 in /  1016.8 hPa Calm     88 % 0 in /  0.0 mm 0.0 W/m2 OVC
07:07 57.6 °F /  14.2 °C 54.1 °F /  12.3 °C 30 in /  1015.5 hPa Calm     88 % 0 in /  0.0 mm 37.0 W/m2 SCT
07:10 57.7 °F /  14.3 °C 54.1 °F /  12.3 °C 30 in /  1016.8 hPa Calm   2 mph /  3.2 km/h 88 % 0 in /  0.0 mm 0.0 W/m2 OVC
07:12 57.7 °F /  14.3 °C 54.3 °F /  12.4 °C 30 in /  1015.5 hPa Calm     88 % 0 in /  0.0 mm 47.0 W/m2 SCT
07:15 57.6 °F /  14.2 °C 54.1 °F /  12.3 °C 30 in /  1016.5 hPa Calm     88 % 0 in /  0.0 mm 0.0 W/m2 OVC
07:17 57.9 °F /  14.4 °C 54.5 °F /  12.5 °C 30 in /  1015.5 hPa Calm     88 % 0 in /  0.0 mm 58.0 W/m2 FEW
07:20 57.6 °F /  14.2 °C 54 °F /  12.2 °C 30 in /  1016.5 hPa Calm     88 % 0 in /  0.0 mm 0.0 W/m2 OVC
07:22 58.3 °F /  14.6 °C 54.7 °F /  12.6 °C 30 in /  1015.5 hPa SE 3.5 mph /  5.6 km/h   88 % 0 in /  0.0 mm 62.0 W/m2 FEW
07:25 57.4 °F /  14.1 °C 54 °F /  12.2 °C 30 in /  1016.5 hPa Calm     88 % 0 in /  0.0 mm 0.0 W/m2 OVC
07:27 58.5 °F /  14.7 °C 55 °F /  12.8 °C 30 in /  1015.5 hPa Calm     88 % 0 in /  0.0 mm 76.0 W/m2 FEW
07:30 57.4 °F /  14.1 °C 53.8 °F /  12.1 °C 30 in /  1016.5 hPa Calm     88 % 0 in /  0.0 mm 0.0 W/m2 OVC
07:32 58.8 °F /  14.9 °C 55 °F /  12.8 °C 30 in /  1015.5 hPa Calm     87 % 0 in /  0.0 mm 86.0 W/m2 FEW
07:35 57.4 °F /  14.1 °C 53.8 °F /  12.1 °C 30 in /  1016.5 hPa Calm     88 % 0 in /  0.0 mm 0.0 W/m2 OVC
07:37 59.2 °F /  15.1 °C 55.2 °F /  12.9 °C 30 in /  1015.5 hPa Calm     87 % 0 in /  0.0 mm 79.0 W/m2 FEW
07:40 57.4 °F /  14.1 °C 53.8 °F /  12.1 °C 30 in /  1016.5 hPa Calm     88 % 0 in /  0.0 mm 0.0 W/m2 OVC
07:42 59.4 °F /  15.2 °C 55 °F /  12.8 °C 30 in /  1015.1 hPa Calm     86 % 0 in /  0.0 mm 76.0 W/m2 FEW
07:45 57.4 °F /  14.1 °C 53.8 °F /  12.1 °C 30 in /  1016.1 hPa Calm     88 % 0 in /  0.0 mm 0.0 W/m2 OVC
07:47 59.5 °F /  15.3 °C 55.2 °F /  12.9 °C 30 in /  1015.5 hPa South 2.3 mph /  3.7 km/h 2.3 mph /  3.7 km/h 86 % 0 in /  0.0 mm 84.0 W/m2 SCT
07:50 57.4 °F /  14.1 °C 53.8 °F /  12.1 °C 30 in /  1016.1 hPa Calm     88 % 0 in /  0.0 mm 0.0 W/m2 OVC
07:55 57.2 °F /  14.0 °C 53.8 °F /  12.1 °C 30 in /  1016.1 hPa Calm     88 % 0 in /  0.0 mm 0.0 W/m2 OVC
08:00 57.2 °F /  14.0 °C 53.8 °F /  12.1 °C 30 in /  1016.1 hPa Calm     88 % 0 in /  0.0 mm 0.0 W/m2 OVC
08:02 60.1 °F /  15.6 °C 55.9 °F /  13.3 °C 30 in /  1015.1 hPa South 3 mph /  4.8 km/h 3 mph /  4.8 km/h 86 % 0 in /  0.0 mm 91.0 W/m2 OVC
08:05 57.2 °F /  14.0 °C 53.8 °F /  12.1 °C 30 in /  1016.1 hPa Calm     88 % 0 in /  0.0 mm 0.0 W/m2 OVC
08:07 60.3 °F /  15.7 °C 55.8 °F /  13.2 °C 30 in /  1015.1 hPa SSE 6 mph /  9.7 km/h 6 mph /  9.7 km/h 85 % 0 in /  0.0 mm 88.0 W/m2 SCT
08:12 57 °F /  13.9 °C 53.6 °F /  12.0 °C 30 in /  1015.8 hPa Calm     88 % 0 in /  0.0 mm 5.0 W/m2 OVC
08:17 60.6 °F /  15.9 °C 56.1 °F /  13.4 °C 30 in /  1015.1 hPa SE 3.5 mph /  5.6 km/h 3.5 mph /  5.6 km/h 85 % 0 in /  0.0 mm 120.0 W/m2 OVC
08:19 60.8 °F /  16.0 °C 56.3 °F /  13.5 °C 30 in /  1015.1 hPa SSE 1.2 mph /  1.9 km/h   85 % 0 in /  0.0 mm 128.0 W/m2 SCT
08:24 61.2 °F /  16.2 °C 56.7 °F /  13.7 °C 30 in /  1015.1 hPa SSE 2.3 mph /  3.7 km/h 2.3 mph /  3.7 km/h 85 % 0 in /  0.0 mm 153.0 W/m2 SCT
08:29 61.3 °F /  16.3 °C 56.5 °F /  13.6 °C 30 in /  1015.1 hPa SSW 1.2 mph /  1.9 km/h 1.2 mph /  1.9 km/h 84 % 0 in /  0.0 mm 227.0 W/m2 SCT
08:34 61.9 °F /  16.6 °C 56.7 °F /  13.7 °C 30 in /  1015.1 hPa SE 3.5 mph /  5.6 km/h 3.5 mph /  5.6 km/h 83 % 0 in /  0.0 mm 151.0 W/m2 SCT
08:39 62.1 °F /  16.7 °C 57.2 °F /  14.0 °C 30 in /  1014.8 hPa SSE 7 mph /  11.3 km/h 7 mph /  11.3 km/h 84 % 0 in /  0.0 mm 155.0 W/m2 SCT
08:44 62.2 °F /  16.8 °C 57 °F /  13.9 °C 30 in /  1014.8 hPa SE 2.3 mph /  3.7 km/h   83 % 0 in /  0.0 mm 155.0 W/m2 SCT
08:49 62.4 °F /  16.9 °C 57.4 °F /  14.1 °C 30 in /  1014.8 hPa SSE 6.9 mph /  11.1 km/h 6.9 mph /  11.1 km/h 83 % 0 in /  0.0 mm 146.0 W/m2 SCT
08:54 62.8 °F /  17.1 °C 57.6 °F /  14.2 °C 30 in /  1014.8 hPa SSE 3.5 mph /  5.6 km/h 3.5 mph /  5.6 km/h 83 % 0 in /  0.0 mm 128.0 W/m2 SCT
08:59 63 °F /  17.2 °C 57.7 °F /  14.3 °C 30 in /  1014.4 hPa South 4 mph /  6.4 km/h 4 mph /  6.4 km/h 83 % 0 in /  0.0 mm 125.0 W/m2 SCT
09:04 63.1 °F /  17.3 °C 57.9 °F /  14.4 °C 30 in /  1014.4 hPa SSE 3.5 mph /  5.6 km/h 3.5 mph /  5.6 km/h 83 % 0 in /  0.0 mm 130.0 W/m2 BKN
09:09 63.3 °F /  17.4 °C 58.1 °F /  14.5 °C 30 in /  1014.4 hPa Calm     83 % 0 in /  0.0 mm 146.0 W/m2 BKN
09:14 63.7 °F /  17.6 °C 58.1 °F /  14.5 °C 30 in /  1014.4 hPa South 1.2 mph /  1.9 km/h 1.2 mph /  1.9 km/h 82 % 0 in /  0.0 mm 160.0 W/m2 SCT
09:19 63.9 °F /  17.7 °C 58.3 °F /  14.6 °C 30 in /  1014.4 hPa SSW 3 mph /  4.8 km/h 3 mph /  4.8 km/h 82 % 0 in /  0.0 mm 155.0 W/m2 SCT
09:24 64.2 °F /  17.9 °C 58.6 °F /  14.8 °C 30 in /  1014.4 hPa SSW 3.5 mph /  5.6 km/h 3.5 mph /  5.6 km/h 82 % 0 in /  0.0 mm 130.0 W/m2 BKN
09:29 64.4 °F /  18.0 °C 58.8 °F /  14.9 °C 30 in /  1014.4 hPa SSE 2.3 mph /  3.7 km/h 2.3 mph /  3.7 km/h 82 % 0 in /  0.0 mm 121.0 W/m2 BKN
09:34 64.6 °F /  18.1 °C 58.5 °F /  14.7 °C 30 in /  1014.4 hPa SSW 3.5 mph /  5.6 km/h 3.5 mph /  5.6 km/h 81 % 0 in /  0.0 mm 142.0 W/m2 BKN
09:39 64.8 °F /  18.2 °C 59.2 °F /  15.1 °C 30 in /  1014.4 hPa South 3.5 mph /  5.6 km/h 3.5 mph /  5.6 km/h 82 % 0 in /  0.0 mm 160.0 W/m2 BKN
09:44 64.9 °F /  18.3 °C 59.4 °F /  15.2 °C 29.9 in /  1014.1 hPa Calm     82 % 0 in /  0.0 mm 171.0 W/m2 BKN
09:49 65.1 °F /  18.4 °C 59.2 °F /  15.1 °C 29.9 in /  1014.1 hPa SW 3.5 mph /  5.6 km/h 3.5 mph /  5.6 km/h 81 % 0 in /  0.0 mm 142.0 W/m2 BKN
09:52 65.3 °F /  18.5 °C 59.4 °F /  15.2 °C 29.9 in /  1014.1 hPa South 3 mph /  4.8 km/h 3 mph /  4.8 km/h 81 % 0 in /  0.0 mm 113.0 W/m2 BKN
09:57 65.3 °F /  18.5 °C 59 °F /  15.0 °C 29.9 in /  1014.1 hPa South 8.1 mph /  13.0 km/h 8.1 mph /  13.0 km/h 80 % 0 in /  0.0 mm 111.0 W/m2 BKN
10:02 65.3 °F /  18.5 °C 59 °F /  15.0 °C 29.9 in /  1014.1 hPa SSE 6.9 mph /  11.1 km/h 6.9 mph /  11.1 km/h 80 % 0 in /  0.0 mm 93.0 W/m2 BKN
10:07 65.1 °F /  18.4 °C 58.8 °F /  14.9 °C 29.9 in /  1014.1 hPa SSE 8.1 mph /  13.0 km/h 8.1 mph /  13.0 km/h 80 % 0 in /  0.0 mm 88.0 W/m2 BKN
10:12 65.1 °F /  18.4 °C 58.8 °F /  14.9 °C 29.9 in /  1014.1 hPa South 4.6 mph /  7.4 km/h 4.6 mph /  7.4 km/h 80 % 0 in /  0.0 mm 93.0 W/m2 BKN
10:17 65.3 °F /  18.5 °C 59.4 °F /  15.2 °C 29.9 in /  1014.1 hPa South 5.8 mph /  9.3 km/h 5.8 mph /  9.3 km/h 81 % 0 in /  0.0 mm 123.0 W/m2 BKN
10:22 65.5 °F /  18.6 °C 59.4 °F /  15.2 °C 29.9 in /  1014.1 hPa SSW 9.2 mph /  14.8 km/h 9.2 mph /  14.8 km/h 81 % 0 in /  0.0 mm 142.0 W/m2 BKN
10:27 65.5 °F /  18.6 °C 59.5 °F /  15.3 °C 29.9 in /  1014.1 hPa SSW 9.2 mph /  14.8 km/h 9.2 mph /  14.8 km/h 81 % 0 in /  0.0 mm 156.0 W/m2 BKN
10:32 65.8 °F /  18.8 °C 60.3 °F /  15.7 °C 29.9 in /  1014.1 hPa SSW 8.1 mph /  13.0 km/h 8.1 mph /  13.0 km/h 82 % 0 in /  0.0 mm 176.0 W/m2 BKN
10:37 65.8 °F /  18.8 °C 59.5 °F /  15.3 °C 29.9 in /  1014.1 hPa SSW 8 mph /  12.9 km/h 8 mph /  12.9 km/h 80 % 0 in /  0.0 mm 135.0 W/m2 BKN
10:42 66 °F /  18.9 °C 59.7 °F /  15.4 °C 29.9 in /  1014.1 hPa SSW 7 mph /  11.3 km/h 7 mph /  11.3 km/h 80 % 0 in /  0.0 mm 88.0 W/m2 BKN
10:47 65.8 °F /  18.8 °C 59.5 °F /  15.3 °C 29.9 in /  1014.1 hPa South 8.1 mph /  13.0 km/h 8.1 mph /  13.0 km/h 80 % 0 in /  0.0 mm 128.0 W/m2 BKN
10:52 65.8 °F /  18.8 °C 59.9 °F /  15.5 °C 29.9 in /  1014.1 hPa South 8.1 mph /  13.0 km/h 8.1 mph /  13.0 km/h 81 % 0 in /  0.0 mm 181.0 W/m2 BKN
10:57 65.8 °F /  18.8 °C 59.9 °F /  15.5 °C 29.9 in /  1013.8 hPa South 5 mph /  8.0 km/h 5 mph /  8.0 km/h 81 % 0 in /  0.0 mm 163.0 W/m2 BKN
11:02 65.8 °F /  18.8 °C 59.5 °F /  15.3 °C 29.9 in /  1013.8 hPa South 7 mph /  11.3 km/h 7 mph /  11.3 km/h 80 % 0 in /  0.0 mm 146.0 W/m2 BKN
11:07 66 °F /  18.9 °C 59.7 °F /  15.4 °C 29.9 in /  1013.8 hPa SE 3.5 mph /  5.6 km/h 3.5 mph /  5.6 km/h 80 % 0 in /  0.0 mm 118.0 W/m2 BKN
11:12 65.8 °F /  18.8 °C 59.5 °F /  15.3 °C 29.9 in /  1013.8 hPa SSW 4.6 mph /  7.4 km/h 4.6 mph /  7.4 km/h 80 % 0 in /  0.0 mm 77.0 W/m2 BKN
11:17 65.8 °F /  18.8 °C 59.7 °F /  15.4 °C 29.9 in /  1013.8 hPa SSW 4.6 mph /  7.4 km/h 4.6 mph /  7.4 km/h 81 % 0 in /  0.0 mm 93.0 W/m2 BKN
11:22 65.7 °F /  18.7 °C 59.5 °F /  15.3 °C 29.9 in /  1013.8 hPa SSE 4.6 mph /  7.4 km/h 4.6 mph /  7.4 km/h 81 % 0 in /  0.0 mm 70.0 W/m2 BKN
11:27 65.3 °F /  18.5 °C 60.1 °F /  15.6 °C 29.9 in /  1013.8 hPa SE 4 mph /  6.4 km/h 4 mph /  6.4 km/h 83 % 0.01 in /  0.3 mm 40.0 W/m2 RA
11:32 64.8 °F /  18.2 °C 60.3 °F /  15.7 °C 29.9 in /  1013.8 hPa SSE 3.5 mph /  5.6 km/h 3.5 mph /  5.6 km/h 85 % 0.01 in /  0.3 mm 77.0 W/m2 RA
11:37 64.6 °F /  18.1 °C 60.3 °F /  15.7 °C 29.9 in /  1013.8 hPa SW 4.6 mph /  7.4 km/h 4.6 mph /  7.4 km/h 86 % 0.01 in /  0.3 mm 120.0 W/m2 BKN
11:42 64.6 °F /  18.1 °C 60.4 °F /  15.8 °C 29.9 in /  1013.8 hPa SSW 4.6 mph /  7.4 km/h 4.6 mph /  7.4 km/h 87 % 0.01 in /  0.3 mm 156.0 W/m2 BKN
11:47 64.8 °F /  18.2 °C 60.4 °F /  15.8 °C 29.9 in /  1013.8 hPa South 3.5 mph /  5.6 km/h 3.5 mph /  5.6 km/h 86 % 0.01 in /  0.3 mm 137.0 W/m2 BKN
11:52 64.8 °F /  18.2 °C 60.4 °F /  15.8 °C 29.9 in /  1013.4 hPa SSE 6.9 mph /  11.1 km/h 6.9 mph /  11.1 km/h 86 % 0.01 in /  0.3 mm 146.0 W/m2 BKN
11:57 64.9 °F /  18.3 °C 60.6 °F /  15.9 °C 29.9 in /  1013.4 hPa South 6.9 mph /  11.1 km/h 6.9 mph /  11.1 km/h 86 % 0.01 in /  0.3 mm 200.0 W/m2 BKN
12:02 65.1 °F /  18.4 °C 61 °F /  16.1 °C 29.9 in /  1013.4 hPa SSE 5.8 mph /  9.3 km/h 5.8 mph /  9.3 km/h 86 % 0.01 in /  0.3 mm 234.0 W/m2 SCT
12:07 65.7 °F /  18.7 °C 61.3 °F /  16.3 °C 29.9 in /  1013.4 hPa South 8.1 mph /  13.0 km/h 8.1 mph /  13.0 km/h 86 % 0.01 in /  0.3 mm 214.0 W/m2 SCT
12:12 65.8 °F /  18.8 °C 61.9 °F /  16.6 °C 29.9 in /  1013.4 hPa SW 2.3 mph /  3.7 km/h 2.3 mph /  3.7 km/h 87 % 0.01 in /  0.3 mm 214.0 W/m2 SCT
12:17 65.8 °F /  18.8 °C 61.3 °F /  16.3 °C 29.9 in /  1013.4 hPa SW 11 mph /  17.7 km/h 11 mph /  17.7 km/h 85 % 0.01 in /  0.3 mm 221.0 W/m2 SCT
12:22 66.4 °F /  19.1 °C 61.9 °F /  16.6 °C 29.9 in /  1013.1 hPa South 5.8 mph /  9.3 km/h 5.8 mph /  9.3 km/h 85 % 0.01 in /  0.3 mm 283.0 W/m2 SCT
12:27 66.6 °F /  19.2 °C 61.5 °F /  16.4 °C 29.9 in /  1013.1 hPa SSW 6.9 mph /  11.1 km/h 6.9 mph /  11.1 km/h 84 % 0 in /  0.0 mm 237.0 W/m2 SCT
12:32 66.7 °F /  19.3 °C 61.9 °F /  16.6 °C 29.9 in /  1013.4 hPa SSW 9.2 mph /  14.8 km/h 9.2 mph /  14.8 km/h 84 % 0 in /  0.0 mm 220.0 W/m2 SCT
12:37 66.7 °F /  19.3 °C 61.9 °F /  16.6 °C 29.9 in /  1013.1 hPa South 8.1 mph /  13.0 km/h 8.1 mph /  13.0 km/h 84 % 0 in /  0.0 mm 237.0 W/m2 SCT
12:42 66.9 °F /  19.4 °C 61.7 °F /  16.5 °C 29.9 in /  1013.1 hPa SSW 8.1 mph /  13.0 km/h 8.1 mph /  13.0 km/h 83 % 0 in /  0.0 mm 186.0 W/m2 SCT
12:47 66.9 °F /  19.4 °C 61.7 °F /  16.5 °C 29.9 in /  1013.1 hPa SE 9.2 mph /  14.8 km/h 9.2 mph /  14.8 km/h 83 % 0 in /  0.0 mm 174.0 W/m2 SCT
12:52 66.9 °F /  19.4 °C 61.7 °F /  16.5 °C 29.9 in /  1013.4 hPa South 11.5 mph /  18.5 km/h 11.5 mph /  18.5 km/h 83 % 0 in /  0.0 mm 197.0 W/m2 SCT
12:57 67.1 °F /  19.5 °C 61.9 °F /  16.6 °C 29.9 in /  1013.4 hPa SSE 11.5 mph /  18.5 km/h 11.5 mph /  18.5 km/h 83 % 0 in /  0.0 mm 204.0 W/m2 SCT
13:02 66.9 °F /  19.4 °C 61.7 °F /  16.5 °C 29.9 in /  1013.4 hPa SSW 10.4 mph /  16.7 km/h 10.4 mph /  16.7 km/h 83 % 0 in /  0.0 mm 174.0 W/m2 -RA
13:07 66.9 °F /  19.4 °C 62.2 °F /  16.8 °C 29.9 in /  1013.4 hPa SSE 5.8 mph /  9.3 km/h 5.8 mph /  9.3 km/h 85 % 0 in /  0.0 mm 234.0 W/m2 -RA
13:12 66.9 °F /  19.4 °C 61.9 °F /  16.6 °C 29.9 in /  1013.4 hPa South 8.1 mph /  13.0 km/h 8.1 mph /  13.0 km/h 84 % 0 in /  0.0 mm 202.0 W/m2 -RA
13:17 66.7 °F /  19.3 °C 62.4 °F /  16.9 °C 29.9 in /  1013.4 hPa South 2.3 mph /  3.7 km/h 2.3 mph /  3.7 km/h 86 % 0.01 in /  0.3 mm 109.0 W/m2 -RA
13:22 66.6 °F /  19.2 °C 61.9 °F /  16.6 °C 29.9 in /  1013.4 hPa WSW 12.7 mph /  20.4 km/h 12.7 mph /  20.4 km/h 85 % 0.01 in /  0.3 mm 63.0 W/m2 -RA
13:27 65.8 °F /  18.8 °C 61.2 °F /  16.2 °C 29.9 in /  1013.4 hPa WSW 9.2 mph /  14.8 km/h 9.2 mph /  14.8 km/h 85 % 0.02 in /  0.5 mm 79.0 W/m2 -RA
13:32 64.9 °F /  18.3 °C 61 °F /  16.1 °C 29.9 in /  1013.8 hPa SSW 10.4 mph /  16.7 km/h 10.4 mph /  16.7 km/h 87 % 0.02 in /  0.5 mm 121.0 W/m2 -RA
13:37 64.6 °F /  18.1 °C 61 °F /  16.1 °C 29.9 in /  1013.4 hPa South 8.1 mph /  13.0 km/h 8.1 mph /  13.0 km/h 88 % 0.03 in /  0.8 mm 155.0 W/m2 -RA
13:42 64.4 °F /  18.0 °C 61.2 °F /  16.2 °C 29.9 in /  1013.4 hPa SW 4.6 mph /  7.4 km/h 4.6 mph /  7.4 km/h 89 % 0.03 in /  0.8 mm 102.0 W/m2 -RA
13:47 64.6 °F /  18.1 °C 61.5 °F /  16.4 °C 29.9 in /  1013.4 hPa Calm     90 % 0.03 in /  0.8 mm 134.0 W/m2 -RA
13:52 64.6 °F /  18.1 °C 61.9 °F /  16.6 °C 29.9 in /  1013.4 hPa WSW 3.5 mph /  5.6 km/h 3.5 mph /  5.6 km/h 91 % 0.03 in /  0.8 mm 172.0 W/m2 -RA
13:57 64.6 °F /  18.1 °C 61.9 °F /  16.6 °C 29.9 in /  1013.4 hPa South 4.6 mph /  7.4 km/h 4.6 mph /  7.4 km/h 91 % 0.03 in /  0.8 mm 135.0 W/m2 -RA
14:02 64.6 °F /  18.1 °C 62.1 °F /  16.7 °C 29.9 in /  1013.4 hPa SW 4 mph /  6.4 km/h 4 mph /  6.4 km/h 92 % 0.03 in /  0.8 mm 144.0 W/m2 -RA
14:07 64.4 °F /  18.0 °C 61.3 °F /  16.3 °C 29.9 in /  1013.4 hPa South 11.5 mph /  18.5 km/h 11.5 mph /  18.5 km/h 90 % 0.03 in /  0.8 mm 155.0 W/m2 -RA
14:12 64.2 °F /  17.9 °C 61.5 °F /  16.4 °C 29.9 in /  1013.4 hPa SW 10.4 mph /  16.7 km/h 10.4 mph /  16.7 km/h 91 % 0.03 in /  0.8 mm 130.0 W/m2 -RA
14:17 64 °F /  17.8 °C 61.3 °F /  16.3 °C 29.9 in /  1013.4 hPa South 9.2 mph /  14.8 km/h 9.2 mph /  14.8 km/h 91 % 0.03 in /  0.8 mm 123.0 W/m2 -RA
14:22 64 °F /  17.8 °C 61.3 °F /  16.3 °C 29.9 in /  1013.4 hPa SSW 10.4 mph /  16.7 km/h 10.4 mph /  16.7 km/h 91 % 0.03 in /  0.8 mm 134.0 W/m2 -RA
14:27 64 °F /  17.8 °C 61.3 °F /  16.3 °C 29.9 in /  1013.4 hPa SSW 10 mph /  16.1 km/h 10 mph /  16.1 km/h 91 % 0.03 in /  0.8 mm 93.0 W/m2 -RA
14:32 63.9 °F /  17.7 °C 61.2 °F /  16.2 °C 29.9 in /  1013.4 hPa South 8.1 mph /  13.0 km/h 8.1 mph /  13.0 km/h 91 % 0.02 in /  0.5 mm 97.0 W/m2 -RA
14:37 63.9 °F /  17.7 °C 61.3 °F /  16.3 °C 29.9 in /  1013.4 hPa SSW 9.2 mph /  14.8 km/h 9.2 mph /  14.8 km/h 92 % 0.02 in /  0.5 mm 130.0 W/m2 -RA
14:42 63.9 °F /  17.7 °C 61.3 °F /  16.3 °C 29.9 in /  1013.4 hPa SSW 7 mph /  11.3 km/h 7 mph /  11.3 km/h 92 % 0.02 in /  0.5 mm 128.0 W/m2 -RA
14:47 63.7 °F /  17.6 °C 61.3 °F /  16.3 °C 29.9 in /  1013.4 hPa SW 6.9 mph /  11.1 km/h 6.9 mph /  11.1 km/h 92 % 0.02 in /  0.5 mm 162.0 W/m2 -RA
14:52 63.9 °F /  17.7 °C 61.3 °F /  16.3 °C 29.9 in /  1013.4 hPa SW 11.5 mph /  18.5 km/h 11.5 mph /  18.5 km/h 92 % 0.02 in /  0.5 mm 104.0 W/m2 -RA
14:57 63.9 °F /  17.7 °C 61.5 °F /  16.4 °C 29.9 in /  1013.4 hPa SE 2 mph /  3.2 km/h 2 mph /  3.2 km/h 92 % 0.02 in /  0.5 mm 93.0 W/m2 -RA
15:02 63.9 °F /  17.7 °C 61.3 °F /  16.3 °C 29.9 in /  1013.4 hPa SSW 5 mph /  8.0 km/h 5 mph /  8.0 km/h 92 % 0.02 in /  0.5 mm 125.0 W/m2 BKN
15:07 63.9 °F /  17.7 °C 61.3 °F /  16.3 °C 29.9 in /  1013.4 hPa SSE 3 mph /  4.8 km/h 3 mph /  4.8 km/h 92 % 0.03 in /  0.8 mm 97.0 W/m2 RA
15:12 63.9 °F /  17.7 °C 61.7 °F /  16.5 °C 29.9 in /  1013.1 hPa South 4.6 mph /  7.4 km/h 4.6 mph /  7.4 km/h 93 % 0.04 in /  1.0 mm 72.0 W/m2 RA
15:17 63.9 °F /  17.7 °C 61.7 °F /  16.5 °C 29.9 in /  1013.4 hPa SW 4.6 mph /  7.4 km/h 4.6 mph /  7.4 km/h 93 % 0.04 in /  1.0 mm 63.0 W/m2 RA
15:22 63.9 °F /  17.7 °C 61.7 °F /  16.5 °C 29.9 in /  1013.4 hPa SW 8.1 mph /  13.0 km/h 8.1 mph /  13.0 km/h 93 % 0.04 in /  1.0 mm 83.0 W/m2 RA
15:27 63.7 °F /  17.6 °C 61.5 °F /  16.4 °C 29.9 in /  1013.4 hPa WSW 11.5 mph /  18.5 km/h 11.5 mph /  18.5 km/h 93 % 0.03 in /  0.8 mm 183.0 W/m2 BKN
15:32 63.9 °F /  17.7 °C 61.7 °F /  16.5 °C 29.9 in /  1013.4 hPa SSW 11.5 mph /  18.5 km/h 11.5 mph /  18.5 km/h 93 % 0.03 in /  0.8 mm 176.0 W/m2 BKN
Weerstation Assen
Compliments of Weather Underground - 2 mb

© 2009 - 2017 Weerstation Assen
alle rechten voorbehouden
www.weerstation-assen.nl

Baseer nooit belangrijke beslissingen op deze of andere weergegevens verkregen via Internet.
WeBBuddy Website Monitor
Weerstation Assen op Facebook
Weerstation Assen op Twitter